GEFSGL_con_cape1000_222.txt.gz
Probability
68 68 61 52 45 39 35 35 35 32 29 26 26 26 23 23 19 19 19 16 13 10 10 10 6 6 6 6 6 6 6 3 6 3 0 0 0 0 0 0 0 0 0
68 65 61 48 42 42 35 35 29 26 26 26 23 23 19 19 19 19 19 19 13 10 10 6 6 6 6 6 6 6 6 6 6 6 0 0 0 0 0 0 0 0 0
68 65 55 52 45 42 35 32 32 32 26 23 23 16 16 19 19 19 19 16 10 10 6 6 6 6 6 6 6 6 6 6 3 3 3 0 0 0 0 0 0 0 0
61 55 55 48 39 32 29 29 26 26 26 19 19 23 19 19 16 16 16 13 10 6 3 3 3 3 3 3 6 3 3 3 3 3 3 0 0 0 0 0 0 0 0
55 55 55 48 39 32 35 26 23 23 23 19 19 16 16 16 16 16 16 10 6 6 6 6 6 6 0 3 3 3 0 3 3 6 6 3 0 0 0 0 0 0 0
58 58 55 52 39 29 32 32 26 26 23 19 19 19 16 19 13 16 16 6 3 6 6 3 3 3 3 3 3 3 3 3 3 3 3 3 0 0 0 0 0 0 0
55 58 58 52 42 32 32 32 29 29 26 23 19 19 16 13 10 3 3 3 3 0 0 3 3 3 3 3 3 3 0 0 0 3 3 0 0 0 0 0 0 0 0
52 55 55 48 39 39 32 32 29 29 29 29 26 19 16 6 3 3 0 0 3 3 0 3 3 3 3 3 3 3 3 3 0 0 0 0 0 0 0 0 0 0 0
45 45 52 52 39 35 35 32 29 29 26 29 19 16 13 3 0 0 0 0 0 0 0 0 3 6 3 3 3 3 3 3 3 0 0 0 0 0 0 0 0 0 0
45 45 45 35 39 35 35 29 26 26 23 23 19 19 16 6 0 0 0 0 0 0 0 0 3 3 6 3 3 3 3 3 3 3 0 0 0 0 0 0 0 0 0
45 48 45 42 35 32 32 26 26 26 23 23 19 16 10 6 3 0 0 0 0 0 0 0 3 0 0 0 0 3 3 3 3 3 3 0 0 0 0 0 0 0 0
48 52 48 42 39 35 32 26 26 23 23 23 16 16 10 3 3 3 0 0 0 0 0 0 0 0 0 0 0 0 0 0 0 3 3 3 0 0 0 0 0 0 0
45 42 39 35 35 35 35 26 23 23 19 16 13 10 10 3 3 3 0 0 0 0 0 0 0 0 0 0 0 0 0 0 0 3 3 3 3 3 0 0 0 0 0
39 35 32 29 26 26 19 19 19 16 13 10 10 13 10 3 3 3 3 0 0 0 0 0 0 0 0 0 0 0 0 0 0 0 3 3 3 3 0 0 0 0 0
32 32 26 19 19 19 16 13 13 6 6 6 6 6 6 6 3 0 0 0 3 0 0 0 0 0 0 0 0 0 0 0 0 0 3 3 3 3 0 0 0 0 0
32 29 16 19 19 16 10 6 0 3 3 6 6 3 3 3 0 0 0 0 0 0 0 0 0 0 0 0 0 0 0 0 0 0 3 3 3 3 3 0 0 0 0
29 26 16 23 19 16 10 10 3 0 0 0 0 0 0 0 0 0 0 0 0 0 0 0 0 0 0 0 0 0 0 0 0 0 0 3 3 3 3 3 0 0 0
23 16 16 16 16 16 10 10 10 3 0 0 0 0 0 0 0 0 0 0 0 0 0 0 0 0 0 0 0 0 0 0 0 0 0 0 3 3 3 3 3 0 0
26 19 19 19 19 13 13 10 10 6 3 0 0 0 0 0 0 0 0 0 0 0 0 0 0 0 0 0 0 0 0 0 0 0 0 0 0 3 3 3 3 0 0
26 23 19 19 16 13 13 10 10 10 6 0 0 0 0 0 0 0 0 0 0 0 0 0 0 0 0 0 0 0 0 0 0 0 0 0 0 0 0 3 3 3 0
26 16 16 13 10 10 10 10 10 10 6 3 0 0 0 0 0 0 0 0 0 0 0 0 0 0 0 0 0 0 0 0 0 0 0 0 0 0 0 0 3 3 3
16 13 10 10 10 10 10 10 10 10 10 3 0 0 0 0 0 0 0 0 0 0 0 0 0 0 0 0 0 0 0 0 0 0 0 0 0 0 0 0 0 3 3
13 13 10 10 10 10 10 10 10 6 0 0 0 0 0 0 0 0 0 0 0 0 0 0 0 0 0 0 0 0 0 0 0 0 0 0 0 0 0 0 0 0 3
10 10 10 10 10 10 10 3 3 3 3 0 0 0 0 0 0 0 0 0 0 0 0 0 0 0 0 0 0 0 0 0 0 0 0 0 0 0 0 0 0 0 0
6 6 6 6 6 10 6 3 3 3 3 0 0 0 0 0 0 0 0 0 0 0 0 0 0 0 0 0 0 0 0 0 0 0 0 0 0 0 0 0 0 0 0
6 10 10 6 3 3 3 3 0 0 0 0 0 0 0 0 0 0 0 0 0 0 0 0 0 0 0 0 0 0 0 0 0 0 0 0 0 0 0 0 0 0 0

GEFSGL_con_cape1000_228.txt.gz
Probability
39 39 42 45 42 35 35 32 29 26 23 19 19 19 19 16 16 16 16 16 19 19 10 10 10 10 6 6 6 6 6 6 6 3 3 3 3 0 0 0 0 0 0
42 42 45 35 35 35 32 29 29 26 23 23 19 19 19 16 16 16 16 16 16 16 6 6 10 10 6 6 6 6 6 3 3 3 3 3 3 0 0 0 0 0 0
42 42 39 39 32 32 29 26 23 23 19 19 19 16 19 16 16 16 16 16 16 16 16 10 6 6 3 3 0 3 3 3 3 3 3 3 3 3 0 0 0 0 0
39 39 35 32 32 26 29 23 23 23 19 19 19 19 16 13 13 13 13 13 13 10 10 6 3 6 0 0 0 0 0 0 0 0 0 0 3 3 0 3 3 3 0
39 35 32 32 32 29 29 26 26 23 23 19 19 19 19 13 13 13 13 13 13 6 6 6 3 3 0 0 3 3 0 0 3 3 0 3 3 3 3 3 3 0 0
39 35 35 35 26 29 26 23 16 19 19 19 19 19 16 16 13 6 10 10 10 10 6 6 6 0 0 0 0 0 0 3 3 3 3 3 3 3 3 3 0 0 0
42 39 35 35 26 26 23 19 16 16 19 19 19 16 16 16 10 10 6 13 13 13 10 6 3 0 0 0 0 0 0 0 0 3 3 3 3 3 3 3 0 0 0
39 35 32 39 32 23 23 16 16 19 19 19 19 16 16 16 13 3 3 6 10 13 13 6 0 0 0 0 0 0 3 3 3 0 3 3 3 3 3 3 3 0 0
35 39 35 35 35 29 23 19 16 19 19 16 19 16 16 13 10 3 0 6 6 6 6 0 0 0 0 0 0 0 3 3 3 3 3 3 3 0 3 3 0 0 0
32 32 35 35 29 32 26 23 19 19 23 16 13 13 13 13 10 3 0 6 6 6 6 0 0 0 0 0 0 0 0 0 0 3 3 3 0 0 0 0 3 3 3
26 26 23 29 19 16 19 16 13 16 13 13 16 16 16 16 10 3 0 6 6 6 3 3 0 0 0 0 0 0 0 0 0 0 0 3 3 3 3 0 3 3 3
16 16 23 23 16 13 16 13 13 10 10 13 10 13 13 10 10 10 0 0 3 3 3 6 0 0 0 0 0 0 0 0 0 0 0 0 0 3 3 3 3 3 3
13 16 19 16 13 13 13 13 10 3 10 10 10 13 13 10 10 3 0 0 0 3 3 0 0 0 0 0 0 0 0 0 0 0 0 0 0 0 3 3 3 0 0
13 16 19 16 10 13 10 10 6 6 3 3 3 10 3 3 3 3 0 0 0 0 0 0 0 0 0 0 0 0 0 0 0 0 0 0 0 0 0 0 3 0 0
10 13 13 16 6 10 10 6 6 10 6 3 3 3 3 3 3 3 0 0 0 0 0 0 0 0 0 0 0 0 0 0 0 0 0 0 0 0 0 0 0 3 3
13 10 13 16 16 6 13 10 3 3 3 3 3 3 3 3 3 0 0 0 0 0 0 0 0 0 0 0 0 0 0 0 0 0 0 0 0 0 0 0 0 3 3
16 13 13 16 19 19 16 16 16 3 3 3 3 3 3 3 0 0 0 0 0 0 0 0 0 0 0 0 0 0 0 0 0 0 0 0 0 0 0 0 0 0 0
13 13 13 19 19 16 16 16 16 16 6 3 0 0 0 0 0 0 0 0 0 0 0 0 0 0 0 0 0 0 0 0 0 0 0 0 0 0 0 0 0 0 0
16 13 16 23 19 16 13 16 16 16 10 6 0 0 0 0 0 0 0 0 0 0 0 0 0 0 0 0 0 0 0 0 0 0 0 0 0 0 0 0 0 0 0
13 16 19 23 23 16 13 16 13 13 13 6 3 0 0 0 0 0 0 0 0 0 0 0 0 0 0 0 0 0 0 0 0 0 0 0 0 0 0 0 0 0 0
16 16 16 19 19 16 16 16 16 10 10 6 3 3 0 0 0 0 0 0 0 0 0 0 0 0 0 0 0 0 0 0 0 0 0 0 0 0 0 0 0 0 0
10 10 10 16 13 13 16 13 10 10 10 10 3 3 0 0 0 0 0 0 0 0 0 0 0 0 0 0 0 0 0 0 0 0 0 0 0 0 0 0 0 0 0
6 10 10 16 6 6 10 13 10 10 10 10 3 3 0 0 0 0 0 0 0 0 0 0 0 0 0 0 0 0 0 0 0 0 0 0 0 0 0 0 0 0 0
6 10 13 10 6 6 13 6 10 10 10 10 3 3 0 0 0 0 0 0 0 0 0 0 0 0 0 0 0 0 0 0 0 0 0 0 0 0 0 0 0 0 0
6 10 13 10 6 6 3 3 6 10 6 6 3 3 3 0 0 0 0 0 0 0 0 0 0 0 0 0 0 0 0 0 0 0 0 0 0 0 0 0 0 0 0
6 10 6 3 3 3 3 0 0 0 6 6 6 3 3 3 0 0 0 0 0 0 0 0 0 0 0 0 0 0 0 0 0 0 0 0 0 0 0 0 0 0 0

GEFSGL_con_cape1000_234.txt.gz
Probability
74 74 81 74 74 68 68 65 68 65 58 48 52 55 58 48 52 52 35 39 42 39 39 32 45 42 45 45 42 35 35 39 39 26 16 13 19 16 10 13 13 13 13
74 74 74 77 71 68 65 65 61 58 55 55 55 55 48 45 45 39 39 32 35 32 32 29 32 29 42 39 39 32 35 39 35 23 13 10 19 19 19 19 10 6 13
71 71 71 68 68 68 68 65 65 61 58 55 61 61 52 42 42 39 32 35 35 32 32 32 29 32 42 32 35 32 29 16 23 23 10 13 13 13 13 13 10 13 10
68 71 74 68 65 65 61 61 65 61 58 61 58 55 48 42 35 39 32 32 29 26 26 23 23 26 26 26 23 26 29 26 23 19 10 10 10 10 16 13 13 13 10
65 68 68 65 58 58 58 58 61 65 42 48 39 45 45 35 29 32 32 26 32 23 23 19 19 19 16 16 13 16 16 19 16 16 10 10 10 10 6 6 3 6 13
65 68 65 61 61 61 58 55 55 52 45 45 42 39 35 26 16 16 19 26 26 23 16 19 16 13 13 6 6 6 10 16 16 16 3 3 16 10 6 6 3 3 3
61 58 58 58 61 61 58 55 52 48 48 48 42 45 39 29 13 13 6 26 19 19 19 19 16 13 13 13 10 0 3 3 3 16 10 10 10 10 10 6 6 6 6
58 48 48 55 61 61 61 58 55 58 55 52 48 42 39 29 13 3 0 13 23 23 23 19 23 23 16 16 16 13 13 10 3 3 13 13 10 13 13 6 6 6 10
48 45 48 52 55 58 55 58 58 55 52 52 52 45 45 35 10 0 0 16 23 23 19 19 19 19 16 10 16 13 13 10 0 0 0 0 0 0 3 10 6 6 6
48 52 48 52 55 52 55 52 52 48 48 48 48 45 45 35 13 3 0 19 26 26 23 19 10 13 13 3 13 16 13 13 10 3 0 0 0 0 0 3 10 10 10
48 48 48 45 42 45 45 52 55 45 48 48 35 39 35 29 13 3 0 16 23 29 23 23 16 6 0 0 0 10 10 10 6 6 6 10 6 6 6 6 10 10 13
48 45 45 39 42 39 42 42 42 35 39 39 32 29 29 29 10 3 0 0 3 19 26 26 16 3 0 0 0 3 0 0 3 6 6 10 10 6 6 10 13 13 16
42 39 35 35 32 32 32 29 32 29 35 32 26 19 23 23 13 3 0 0 0 6 13 6 3 0 0 0 0 0 0 0 3 3 6 6 6 6 3 6 6 10 10
32 35 32 29 23 19 23 16 23 26 29 29 23 16 16 19 16 6 6 6 0 0 3 3 0 0 0 0 0 0 0 3 3 6 6 10 6 6 6 6 6 6 6
32 29 32 32 23 19 19 16 16 26 19 26 26 16 13 13 10 3 3 10 6 6 3 3 3 3 0 3 3 0 6 6 3 3 10 6 3 3 3 3 6 0 0
29 29 29 26 26 16 13 10 6 10 6 0 3 3 10 10 3 3 3 3 3 3 3 3 6 6 3 3 3 3 3 3 3 0 0 3 3 3 3 3 6 3 0
29 29 29 26 23 16 13 13 6 6 0 0 0 0 0 0 0 0 0 0 0 0 3 3 6 6 6 6 3 3 3 3 6 3 3 0 0 0 0 0 3 3 3
26 26 29 32 16 16 16 16 10 10 16 13 3 0 0 0 0 0 0 0 0 0 3 3 6 3 0 3 3 3 3 3 6 6 3 3 0 0 0 0 0 0 0
26 26 26 23 19 13 16 19 16 16 16 19 16 3 0 0 0 0 0 3 3 3 3 6 6 0 0 0 0 0 3 3 3 3 3 3 3 3 3 3 3 0 0
16 16 23 23 23 16 13 16 16 13 16 19 23 16 6 0 0 0 3 3 6 6 3 3 3 0 0 0 0 0 0 0 0 0 0 0 0 0 0 0 0 0 0
13 10 6 16 16 13 13 13 16 16 16 16 19 19 10 10 10 10 3 3 3 3 3 3 0 0 0 0 0 0 0 0 0 0 0 0 0 0 0 0 0 0 0
6 6 6 6 10 6 6 10 16 16 19 19 23 13 6 10 10 10 10 6 3 3 3 0 0 0 0 0 0 0 0 0 0 0 0 0 0 0 0 0 0 0 0
6 6 6 6 10 6 6 10 10 16 19 19 16 10 10 10 10 10 10 10 3 0 0 0 0 0 0 0 0 0 0 0 0 0 0 0 0 0 0 0 0 0 0
6 6 6 6 6 3 13 13 13 16 13 16 16 10 10 13 10 10 10 6 6 3 3 3 0 0 0 0 0 0 0 0 0 0 0 0 0 0 0 0 0 0 0
6 6 6 10 10 3 10 13 16 16 13 16 13 6 6 6 10 10 10 6 6 6 6 3 3 3 0 0 0 0 0 0 0 0 0 0 0 0 0 0 0 0 0
6 6 6 10 10 6 10 16 16 16 16 16 6 6 6 6 3 6 10 6 6 6 6 6 6 3 0 0 0 0 0 0 0 0 0 0 0 0 0 0 0 0 0

GEFSGL_con_cape1000_240.txt.gz
Probability
84 84 81 81 81 77 81 77 77 74 71 68 68 68 68 61 61 68 68 71 68 65 65 65 65 61 61 55 55 45 45 35 29 29 23 19 23 16 10 13 10 10 10
81 84 81 81 81 84 74 74 74 71 71 61 65 65 65 61 58 58 58 58 61 65 65 65 65 58 61 58 48 48 42 39 29 26 19 19 19 19 16 13 0 3 10
74 77 81 81 81 81 77 74 68 71 71 61 61 65 65 61 61 58 55 55 55 52 52 55 58 61 61 52 48 39 29 26 23 16 13 13 13 13 10 10 10 10 3
77 77 71 77 81 77 68 71 71 71 71 71 61 61 58 61 61 61 61 48 52 45 39 39 39 39 45 42 35 32 29 23 23 23 16 13 10 10 6 13 13 10 6
71 71 68 68 77 74 68 68 71 71 65 68 65 61 58 58 48 45 45 35 42 35 35 39 32 26 26 19 19 19 19 16 23 19 16 13 6 10 3 10 6 13 6
74 74 71 68 65 68 68 68 68 68 65 65 68 65 61 45 32 23 32 39 39 32 29 29 29 23 13 13 13 13 13 16 16 19 19 13 10 13 6 6 6 6 3
74 71 68 68 65 65 61 68 71 71 71 71 68 61 55 39 29 16 16 32 39 39 39 32 19 13 10 13 13 10 10 3 10 13 16 19 16 13 10 10 6 6 6
68 65 65 65 65 65 61 61 68 71 71 71 68 58 58 42 29 13 6 16 35 39 39 29 32 26 13 16 16 13 16 13 6 6 10 13 13 6 10 6 6 6 6
61 68 61 61 61 65 58 61 65 68 68 61 65 61 58 45 19 10 6 19 32 32 35 29 29 23 16 13 13 16 16 16 6 6 6 6 6 6 3 6 6 3 3
58 61 68 71 65 61 58 65 68 68 65 61 58 65 61 55 19 13 3 16 23 26 29 26 16 10 6 3 16 23 19 16 19 10 3 3 3 0 0 3 3 3 3
58 58 65 74 74 68 68 55 61 61 55 58 55 48 58 45 16 10 0 16 23 23 23 26 19 3 3 0 3 13 13 13 16 16 10 13 6 6 3 0 3 6 6
55 55 58 65 52 48 58 61 58 55 48 52 48 52 52 42 19 10 3 0 3 16 16 23 13 3 0 0 0 3 6 6 10 13 16 10 10 6 6 6 6 6 6
52 52 48 48 55 48 48 48 42 52 45 42 45 32 39 32 26 10 3 0 0 6 13 3 3 3 0 0 0 0 3 6 10 10 13 10 6 6 10 10 10 10 13
42 42 42 42 42 45 39 35 35 32 32 32 35 35 32 35 32 16 13 3 0 0 3 3 3 0 0 0 0 0 3 6 10 13 6 3 10 6 6 6 10 6 6
42 42 39 39 39 42 39 32 29 29 29 26 29 26 23 23 16 10 6 10 6 6 6 3 3 6 3 3 10 10 13 13 6 6 6 6 10 10 10 6 6 6 6
35 35 35 35 32 29 26 26 16 10 10 6 10 13 13 10 3 0 0 0 0 3 3 6 6 6 10 10 13 10 6 6 10 6 6 3 3 3 0 0 0 0 0
42 35 32 32 32 29 32 32 19 16 3 3 0 0 0 3 0 0 0 0 0 0 3 3 6 6 10 6 6 6 6 6 13 6 6 6 6 3 0 0 0 0 0
32 29 26 35 29 29 29 32 29 26 23 19 3 0 0 0 0 0 0 0 0 0 3 6 3 10 6 3 3 3 6 10 10 10 6 6 6 3 3 0 0 0 0
29 26 26 26 26 19 26 26 23 23 23 23 19 6 0 0 0 0 0 0 0 0 6 3 6 6 6 3 3 3 6 6 3 3 3 6 3 3 0 0 3 0 0
26 26 23 23 19 19 19 16 19 23 19 26 23 13 6 0 0 0 0 0 6 6 10 6 10 10 6 6 3 3 3 3 3 3 0 0 0 0 0 0 0 0 0
23 23 10 16 16 16 13 13 13 13 10 10 10 13 10 6 6 10 6 0 0 3 10 6 13 10 6 3 3 3 6 3 0 0 0 0 0 0 0 0 0 0 3
19 19 19 13 13 13 13 16 13 13 10 10 13 6 10 10 6 6 6 3 3 6 6 6 6 6 6 10 6 10 3 0 0 0 0 0 0 0 0 0 0 0 0
16 13 10 10 13 10 10 10 6 10 6 6 6 3 6 10 10 10 10 13 13 6 6 6 6 6 6 10 10 10 6 6 0 0 0 0 0 0 0 0 0 0 0
6 3 6 10 10 13 10 10 10 10 10 6 10 13 6 10 6 13 13 16 16 13 6 6 6 6 6 13 10 6 10 6 6 0 0 0 0 0 0 0 0 0 0
6 3 3 3 6 6 3 6 6 6 13 13 10 6 10 10 13 10 13 13 13 13 13 13 13 6 6 6 6 6 6 0 0 0 0 0 0 0 0 0 0 0 0
6 6 3 0 0 0 3 6 10 10 13 13 13 10 13 10 10 10 10 10 13 10 6 6 6 6 6 6 6 6 3 0 0 0 0 0 0 0 0 0 0 0 0

GEFSGL_con_cape1000_246.txt.gz
Probability
58 58 61 55 48 48 52 55 55 42 39 29 29 26 23 26 26 26 29 26 23 23 26 19 16 16 16 10 10 10 10 6 6 6 6 3 3 3 3 0 0 0 0
45 55 55 58 58 48 48 48 52 39 32 29 26 26 23 26 23 23 29 26 19 19 19 13 16 13 13 10 10 10 6 6 10 10 6 3 3 3 3 0 0 0 0
52 52 52 58 52 45 42 45 45 35 32 29 32 32 23 29 23 23 26 23 16 16 19 16 16 13 13 13 10 10 10 10 10 10 10 6 3 3 3 3 0 0 0
48 48 48 55 52 48 42 45 45 48 39 29 29 32 35 32 29 26 23 19 19 19 19 16 19 16 16 13 10 6 6 10 10 10 10 10 3 3 3 3 0 0 0
45 45 52 52 48 45 42 42 45 45 42 39 35 39 39 35 35 32 26 23 16 16 16 16 13 16 16 13 13 10 6 6 6 10 10 6 3 3 3 3 0 0 0
45 45 45 45 48 45 42 42 42 39 39 35 35 35 35 39 32 23 26 23 19 16 13 13 13 13 13 13 13 10 10 6 6 6 6 10 3 3 3 3 3 0 0
42 42 42 42 42 39 39 39 35 35 39 39 32 32 26 32 23 16 13 19 23 16 13 13 10 10 10 10 10 3 6 6 6 6 6 6 10 3 3 3 3 0 0
42 42 42 48 42 39 39 32 29 35 35 32 32 32 26 26 16 10 13 13 19 19 10 10 10 10 10 6 6 6 6 10 6 6 6 6 10 6 3 3 3 3 0
35 35 39 45 45 39 42 39 32 32 32 26 26 29 26 23 13 10 3 10 13 13 13 10 10 10 10 6 6 6 6 6 0 0 3 3 3 3 6 3 3 3 0
32 35 35 39 39 32 32 32 26 32 26 29 19 19 23 16 6 3 3 10 13 13 13 10 10 10 10 6 6 6 6 3 3 0 0 0 0 0 0 6 3 3 0
29 29 29 32 35 32 32 32 29 26 26 19 19 23 23 16 3 3 3 3 10 10 10 10 13 10 3 0 0 6 3 3 3 3 0 0 0 0 0 3 3 3 0
29 29 32 29 35 26 23 26 23 26 26 26 26 23 19 10 3 0 0 0 3 3 3 6 6 3 0 0 0 0 0 0 3 3 3 0 3 0 0 0 3 3 0
29 26 29 29 29 26 23 23 19 19 29 26 26 23 23 19 3 0 0 0 0 0 3 3 0 0 0 0 0 0 0 0 0 3 3 3 6 3 0 0 0 0 0
29 29 26 29 23 19 23 23 19 19 19 19 23 19 23 23 13 3 0 0 0 0 0 0 0 0 0 0 0 0 0 0 0 3 3 3 6 3 0 0 0 0 0
19 23 23 23 23 16 19 16 16 13 13 16 16 16 16 19 19 10 3 0 0 0 0 0 0 0 0 0 0 0 0 0 0 3 3 3 6 3 0 0 0 0 0
19 16 16 10 16 19 16 13 10 6 6 6 6 6 6 6 3 0 0 0 0 0 0 0 0 0 0 0 0 3 0 0 0 3 3 3 3 3 3 0 0 0 0
13 13 13 10 10 10 13 16 13 10 3 0 0 0 0 3 0 0 0 0 0 0 0 0 0 0 0 0 0 0 3 3 3 3 3 3 3 3 3 3 0 0 0
10 13 10 6 10 10 10 13 10 10 13 6 3 0 0 0 0 0 0 0 0 0 0 0 0 0 0 0 0 0 0 3 3 3 3 3 3 3 3 3 0 0 0
13 10 13 6 6 6 13 13 13 13 13 13 6 3 0 0 0 0 0 0 0 0 0 0 0 0 0 0 0 0 0 3 3 3 3 3 3 3 3 3 0 0 0
3 3 6 6 6 6 6 10 10 10 10 10 6 6 3 0 0 0 0 0 0 0 0 0 0 0 0 0 0 0 0 3 3 3 3 3 3 3 3 3 0 0 0
3 0 0 0 3 3 6 6 6 6 6 10 13 10 0 3 3 3 3 3 0 0 0 0 0 0 0 0 0 0 0 3 3 3 3 3 3 3 3 3 0 0 0
0 0 0 0 0 0 0 6 6 3 3 3 3 3 3 3 6 6 3 3 0 0 0 0 0 0 0 0 0 0 0 0 3 3 3 3 3 3 3 0 0 0 0
0 0 0 0 0 0 0 3 3 0 0 0 3 3 3 3 6 6 6 6 6 0 0 0 0 0 0 0 0 3 3 3 3 3 3 3 3 3 0 0 0 0 0
0 0 0 0 0 0 0 0 0 0 0 0 0 0 0 0 3 3 6 6 6 3 3 3 3 3 3 3 3 3 3 6 6 3 3 3 3 0 0 0 0 0 0
0 0 0 3 3 0 0 0 0 0 0 0 0 0 0 0 0 0 0 3 3 3 3 6 3 3 3 3 3 3 6 3 3 3 3 3 0 0 0 0 0 0 0
0 0 0 3 3 3 3 0 0 0 0 0 0 0 0 0 0 0 0 0 3 3 6 6 6 6 3 0 0 3 0 0 0 0 0 0 3 3 0 0 0 0 0

GEFSGL_con_cape1000_252.txt.gz
Probability
29 19 19 19 23 19 19 29 29 26 23 23 23 23 19 16 16 16 16 19 19 19 16 16 16 16 16 16 13 13 6 10 10 10 6 6 6 6 6 3 3 3 3
29 26 23 29 26 32 29 32 29 26 23 26 23 19 19 16 16 16 16 19 16 16 16 16 16 16 16 13 10 10 10 10 10 6 10 10 10 10 6 3 3 3 3
29 29 29 29 35 35 35 32 35 32 29 29 26 26 23 19 16 16 16 16 19 19 16 16 19 16 16 13 13 10 10 6 6 10 6 10 10 10 6 3 3 3 3
39 39 35 39 39 35 32 32 32 26 26 23 23 26 26 23 16 16 16 16 19 19 19 16 19 16 16 16 13 13 10 3 6 6 6 6 6 6 6 6 3 3 3
39 32 35 35 35 35 32 29 29 29 26 26 19 19 19 19 19 23 19 19 19 19 16 16 16 16 16 16 13 10 10 10 10 6 6 6 6 6 6 6 6 10 3
29 29 32 29 35 35 35 29 32 29 29 26 26 23 19 16 16 13 16 19 19 19 16 16 16 16 13 10 0 3 3 10 10 10 10 10 10 6 6 6 3 3 3
32 32 32 35 35 32 29 32 35 32 32 29 32 29 26 23 13 10 10 13 13 16 16 19 16 19 6 10 6 0 0 0 0 6 6 6 10 10 6 3 3 3 3
29 29 32 35 39 39 32 32 32 29 29 29 29 26 23 19 16 10 3 6 13 16 16 13 19 23 19 10 10 6 6 6 3 0 6 6 6 6 3 0 0 0 6
23 26 32 35 35 32 26 26 26 26 26 26 19 23 23 23 10 6 3 6 13 13 13 10 13 13 10 3 6 6 6 6 6 0 0 3 0 0 0 0 0 0 0
29 29 29 29 32 29 26 23 19 16 19 19 16 16 16 16 13 6 3 10 13 10 13 10 10 10 10 0 3 6 6 6 6 6 3 0 0 0 0 0 0 0 0
19 19 19 23 26 26 26 23 19 16 13 13 10 13 13 13 13 3 0 10 13 13 10 6 10 6 0 0 0 3 6 6 6 6 6 3 3 3 0 0 0 0 3
19 19 19 23 23 23 19 16 13 13 10 10 13 13 13 10 13 6 0 0 6 10 3 3 3 0 0 0 0 0 0 0 0 3 3 3 3 3 3 3 0 0 0
16 16 16 19 16 16 16 13 10 13 13 13 16 13 16 13 10 3 0 0 0 3 6 3 0 0 0 0 0 0 0 0 0 0 0 3 3 3 3 3 3 0 0
16 16 13 13 13 13 16 13 10 10 13 16 13 16 16 16 16 13 6 3 0 0 0 0 0 0 0 0 0 0 0 0 0 0 0 0 3 3 3 3 3 3 0
13 10 13 16 16 16 10 6 10 13 13 16 16 13 16 16 16 10 10 3 6 0 0 0 0 0 0 0 0 0 0 0 0 0 0 0 0 0 3 3 3 3 3
10 10 10 10 13 13 10 3 3 3 3 3 3 3 10 6 3 0 0 0 0 0 0 0 0 0 0 0 0 0 0 0 0 0 0 0 0 0 0 3 3 3 3
6 6 6 6 6 3 6 6 6 3 3 0 0 0 0 3 0 0 0 0 0 0 0 0 0 0 0 0 0 0 0 0 0 0 0 0 0 0 0 0 3 3 3
3 3 3 6 3 3 3 6 6 6 6 3 3 0 0 0 0 0 0 0 0 0 0 0 0 0 0 0 0 0 0 0 0 0 0 0 0 0 0 0 0 3 3
3 3 0 3 3 3 3 3 6 6 6 6 3 3 0 0 0 0 0 0 0 0 0 0 0 0 0 0 0 0 0 0 0 0 0 0 0 0 0 0 0 0 0
0 0 0 0 0 0 3 3 3 6 6 0 0 3 0 0 0 0 0 0 0 0 0 0 0 0 0 0 0 0 0 0 0 0 0 0 0 0 0 0 0 0 3
0 0 0 0 0 0 0 0 0 0 0 3 3 3 0 0 0 0 0 0 0 0 0 0 0 0 0 0 0 0 0 0 0 0 0 0 0 0 0 0 0 0 3
0 0 0 0 0 0 0 0 0 0 0 0 0 3 0 0 0 0 0 0 0 0 0 0 3 3 3 3 0 0 0 0 0 0 0 0 0 0 0 0 0 0 3
0 0 0 0 0 0 0 0 0 0 0 0 0 0 0 0 0 0 0 0 0 0 0 0 0 0 3 3 3 3 0 3 6 6 0 0 0 0 0 0 0 0 3
0 0 0 0 0 0 0 0 0 0 0 0 0 0 0 0 0 0 0 0 0 0 0 0 0 0 0 0 0 0 0 0 0 3 3 0 0 0 3 0 0 0 3
0 0 0 0 0 0 0 0 0 0 0 0 0 0 0 0 0 0 0 0 0 0 0 0 0 0 0 0 0 0 0 0 0 0 0 0 0 0 3 6 6 3 3
0 0 0 0 0 0 0 0 0 0 0 0 0 0 0 0 0 0 0 0 0 0 0 0 0 0 0 0 0 0 0 0 0 0 0 0 0 0 0 0 6 6 6